Lapse_Rate
5.0 4.8 4.8 4.9 4.9 5.0 5.2 5.4 5.6 5.6 5.7 5.6 5.5 5.4 5.3 5.3 5.4 5.5 5.7 6.0 6.0 5.9 6.1 6.2 6.1 5.7 5.5 5.7 6.0 6.0 6.3 6.1 7.5 7.1 6.8 6.3 6.2 6.1 6.0 6.1 6.2 6.1 6.0 5.6 5.0
4.8 4.7 4.7 4.7 4.8 4.9 5.0 5.2 5.3 5.4 5.6 5.7 5.8 5.6 5.5 5.3 5.4 5.4 5.7 5.8 6.0 6.0 6.1 6.1 5.7 5.2 5.4 5.6 5.9 6.2 6.5 6.2 6.1 5.9 6.5 6.4 6.3 6.1 6.3 6.2 6.0 6.1 5.9 5.6 5.3
4.7 4.6 4.6 4.6 4.7 4.7 4.8 4.9 5.1 5.2 5.3 5.6 5.7 5.8 5.7 5.5 5.3 4.7 5.6 5.7 5.9 6.0 6.2 5.3 5.2 5.6 5.7 5.5 5.9 5.8 6.2 5.9 5.9 6.3 6.6 6.5 6.3 6.3 6.7 6.4 6.5 6.0 5.5 5.4 5.5
4.8 4.7 4.6 4.5 4.6 4.6 4.7 4.9 4.9 5.0 5.1 5.3 5.6 5.8 5.8 5.7 5.3 5.6 5.7 5.7 5.8 5.9 6.1 5.8 5.4 5.8 6.0 5.7 6.1 6.0 6.1 5.8 5.6 5.8 6.4 6.5 6.4 6.3 6.5 6.1 6.2 5.9 5.5 5.5 5.8
4.8 4.7 4.6 4.5 4.5 4.6 4.7 4.8 4.9 5.0 5.1 5.3 5.5 5.7 5.8 5.5 5.1 5.8 5.8 5.7 5.8 5.9 5.9 5.2 5.8 6.3 6.0 5.9 5.9 5.9 6.1 5.7 6.0 6.3 6.0 6.1 6.3 6.0 6.2 6.2 5.9 5.8 5.6 5.6 6.0
4.9 4.7 4.7 4.6 4.6 4.6 4.7 4.8 5.0 5.1 5.2 5.3 5.5 5.7 5.7 5.3 5.4 5.7 5.7 5.7 5.6 5.7 5.3 5.4 5.9 6.1 6.3 6.2 6.1 5.9 5.9 5.9 5.7 5.8 5.8 5.9 6.0 5.8 6.0 5.9 5.8 5.8 5.9 5.7 6.0
4.9 4.8 4.7 4.6 4.6 4.7 4.8 5.0 5.0 5.2 5.3 5.4 5.5 5.6 5.4 5.2 5.4 5.6 5.8 5.7 5.8 5.5 5.3 5.4 5.6 6.1 6.4 6.0 5.7 5.9 5.8 5.4 5.8 5.7 5.9 5.5 5.8 5.8 5.6 5.9 5.8 5.8 6.1 5.6 5.8
5.0 4.9 4.9 4.8 4.9 4.9 5.0 5.1 5.2 5.5 5.6 5.7 5.6 5.2 4.7 5.1 5.2 5.3 5.6 5.7 5.8 5.8 5.5 5.6 6.4 6.3 6.5 6.5 6.0 5.9 5.5 5.6 5.4 5.7 5.4 5.4 5.3 5.3 5.7 5.9 6.0 5.7 6.1 5.8 5.8
5.1 5.1 5.1 5.1 5.1 5.0 5.2 5.3 5.4 5.4 5.5 5.3 5.1 5.0 4.7 5.0 4.9 5.0 4.7 5.0 5.6 5.7 5.8 6.0 6.4 6.6 6.7 6.9 7.0 6.7 6.3 6.1 5.6 5.8 5.5 5.5 5.2 5.3 5.8 5.9 6.0 5.8 5.8 5.8 5.6
5.3 5.2 5.3 5.3 5.3 5.4 5.4 5.5 5.5 5.3 5.1 4.9 4.9 4.9 5.0 5.0 4.9 4.9 5.3 5.6 5.7 5.5 6.0 6.0 6.2 7.0 7.3 8.4 7.8 6.9 6.2 6.9 5.9 6.0 5.7 5.5 5.1 5.4 5.4 5.9 6.0 6.1 5.7 5.7 5.5
5.4 5.3 5.4 5.4 5.6 5.7 5.6 5.4 5.1 5.3 5.3 5.0 5.3 5.4 5.1 5.0 5.4 5.1 5.4 5.6 5.6 5.9 6.5 6.5 6.7 7.7 9.2 9.1 8.1 8.3 7.6 6.7 6.2 6.3 5.2 5.4 5.5 5.6 5.3 5.4 5.6 5.7 5.4 5.6 5.8
5.6 5.5 5.6 5.6 5.7 5.6 5.5 4.9 5.6 5.5 5.5 5.3 5.3 5.3 5.3 5.4 5.4 5.2 5.3 5.9 6.1 6.6 6.9 7.2 7.5 8.8 9.1 9.0 7.9 8.8 8.7 6.8 6.3 6.0 5.9 5.4 5.6 6.0 5.7 5.9 5.6 5.7 5.7 5.2 5.7
5.7 5.7 5.6 5.6 5.6 5.5 5.6 5.6 5.9 5.9 6.0 5.9 5.7 5.7 5.5 5.5 6.0 5.7 5.5 6.1 6.5 7.1 7.3 7.9 8.8 8.9 8.5 8.3 8.1 9.1 9.3 8.0 7.4 6.4 6.4 6.4 5.6 5.8 5.3 5.1 5.4 5.7 5.4 5.4 5.5
5.8 5.7 5.6 5.7 5.6 5.5 5.6 5.8 6.1 6.1 6.6 6.5 6.3 6.0 5.8 6.0 6.1 5.8 5.9 6.4 6.7 7.3 7.4 7.8 9.2 7.7 8.2 8.3 8.5 9.4 9.2 8.5 8.2 7.2 7.3 6.7 6.8 6.0 5.4 5.3 5.3 5.3 5.4 5.3 5.3
5.9 5.8 5.7 5.7 5.8 5.4 5.7 6.0 6.3 6.4 9.0 6.8 6.7 6.2 6.2 6.6 6.4 6.2 6.1 6.4 7.2 7.2 7.4 8.7 7.8 7.9 8.2 8.6 9.0 9.3 8.4 9.1 8.1 8.4 8.8 7.0 6.9 6.7 5.7 5.3 5.5 5.3 5.5 5.2 5.6
5.9 5.9 5.8 5.8 5.7 5.8 5.9 6.2 6.5 6.8 8.7 7.1 6.9 6.8 7.0 6.9 6.9 6.6 6.3 6.3 6.9 7.3 7.6 8.0 7.4 7.8 8.3 8.6 8.4 8.6 8.6 8.6 9.2 9.3 9.5 8.1 7.9 7.4 6.8 6.0 5.1 5.2 5.6 5.6 5.9
6.0 6.0 5.9 5.9 5.7 5.8 6.0 6.4 6.8 9.2 7.6 7.4 7.4 7.3 7.6 7.8 7.3 7.1 7.0 7.1 7.9 8.1 8.4 8.0 7.9 7.9 8.1 8.4 8.5 8.5 9.4 9.5 9.6 9.6 9.4 8.2 8.5 7.8 7.0 6.3 5.4 5.9 5.2 5.9 5.9
6.1 6.1 6.1 6.0 6.1 6.1 6.2 6.2 7.7 8.0 8.0 7.5 7.5 7.5 8.0 7.9 8.1 7.8 7.9 8.3 8.2 8.4 9.6 9.5 9.2 8.4 8.3 8.4 9.5 8.8 9.4 9.2 8.0 7.2 8.8 7.6 8.5 7.1 6.9 6.7 6.3 6.3 5.9 5.6 6.2
6.1 6.3 6.2 6.1 6.2 6.3 6.5 7.3 9.4 8.2 7.8 7.8 7.8 8.1 9.4 8.1 7.9 8.1 8.6 9.5 9.5 8.6 9.4 9.7 9.6 9.0 8.7 8.6 8.8 9.4 9.3 9.2 8.6 9.3 8.9 8.8 6.9 7.1 6.7 6.4 6.5 5.7 5.8 5.9 6.0
6.1 6.2 6.1 6.3 6.4 6.5 6.4 7.6 7.9 7.7 7.7 7.8 9.3 8.4 9.5 9.3 8.5 9.1 9.2 9.0 8.8 8.4 8.6 9.5 9.4 9.4 8.8 8.7 8.8 9.4 8.9 8.6 8.3 8.3 7.7 8.9 6.9 6.8 6.4 6.0 6.3 6.1 5.9 5.7 5.6
6.1 5.8 6.2 6.4 6.5 6.7 7.2 9.1 7.8 7.6 7.6 7.9 8.3 9.2 9.3 9.1 8.6 9.4 8.8 8.9 8.6 9.1 8.6 9.3 9.6 9.1 9.3 8.8 9.5 9.4 8.6 8.3 8.9 8.7 8.3 8.1 7.1 6.3 6.5 6.6 6.3 6.0 5.9 5.6 5.5
5.9 6.0 6.1 6.3 6.4 6.8 8.0 7.8 7.6 8.1 7.7 7.9 7.9 8.3 9.3 8.9 9.4 9.4 8.9 9.1 8.4 8.6 9.2 9.3 9.5 9.4 9.3 9.2 9.5 9.5 9.4 9.5 9.5 8.0 7.8 7.8 6.7 6.4 6.0 5.8 6.2 5.9 5.7 6.1 5.6
5.7 6.1 5.9 6.1 6.6 7.4 7.6 7.8 7.9 8.2 8.2 8.2 8.7 8.3 8.6 9.2 9.3 9.4 9.2 8.9 8.5 9.3 9.3 9.2 9.4 9.5 8.1 8.3 9.2 9.0 9.0 8.8 7.6 7.5 7.2 7.1 7.3 6.9 6.9 5.7 6.2 6.0 5.7 5.9 5.9
5.7 6.1 5.8 5.9 6.4 7.4 8.8 8.0 8.3 8.2 8.2 8.2 8.3 8.4 8.6 9.4 9.2 8.5 9.4 9.2 8.5 8.7 8.4 8.6 9.3 8.2 7.3 7.2 7.1 7.9 9.1 7.5 7.1 7.2 7.4 7.3 7.3 6.5 6.2 5.8 6.2 6.1 6.5 6.1 5.9
5.6 6.3 6.4 6.2 6.4 7.2 7.9 8.9 8.9 9.1 8.4 8.4 8.5 8.7 9.2 9.3 9.4 9.4 9.4 9.4 9.1 8.7 8.6 9.0 9.1 8.4 7.8 7.6 7.5 7.6 8.2 8.3 7.9 6.6 6.7 7.0 8.7 7.7 6.7 6.6 6.4 6.6 6.1 6.1 6.0
5.1 5.7 5.9 6.5 6.7 7.3 7.8 8.1 8.8 9.4 9.4 9.2 9.1 9.2 9.4 9.4 9.5 9.5 9.5 9.5 9.4 8.4 9.3 9.3 8.9 8.2 7.5 8.3 7.7 8.5 8.8 7.6 8.4 7.8 8.6 7.9 7.9 7.9 7.7 7.3 6.8 7.3 6.6 6.6 6.6
5.5 5.7 5.6 6.2 6.6 7.2 8.0 8.6 9.2 9.3 9.3 9.0 9.4 9.4 9.3 9.3 9.2 9.0 9.0 9.3 9.5 8.9 9.4 9.2 9.0 9.2 8.9 8.0 7.0 9.0 8.6 7.2 7.9 7.7 7.3 8.5 7.8 8.2 8.1 8.1 7.8 7.6 6.8 6.5 6.3
Wind_Speed
10 10 10 10 10 10 9 8 8 9 9 10 11 13 13 15 21 9 10 4 3 4 7 11 10 10 8 6 11 5 4 4 7 11 13 11 10 8 11 12 8 3 19 21 18
11 11 11 11 10 10 10 9 8 8 9 10 11 13 13 14 13 12 6 5 1 6 12 11 9 9 3 6 5 2 2 4 7 12 15 11 13 12 11 12 9 16 23 21 17
12 11 11 11 11 11 11 10 9 10 9 10 12 13 13 14 11 8 7 4 5 10 17 10 7 11 5 9 7 1 3 5 10 12 9 11 11 7 7 12 15 17 22 21 18
12 12 12 12 12 12 12 11 11 11 11 11 12 13 14 12 1 8 6 6 7 12 13 10 11 13 6 6 5 7 8 4 9 2 3 6 8 8 11 10 16 18 20 19 18
14 13 12 12 12 12 12 12 12 12 12 11 12 11 9 9 4 8 11 9 12 12 12 11 12 9 4 5 10 12 8 5 6 13 12 7 5 6 10 16 17 18 18 18 16
14 14 13 13 14 14 13 13 12 12 12 12 11 11 7 8 4 4 10 12 11 11 10 10 3 7 2 7 3 12 11 9 3 4 5 9 3 7 12 15 16 17 18 16 16
14 15 15 15 15 15 15 14 14 13 13 12 9 8 11 8 2 7 10 10 8 10 8 3 4 10 2 5 16 15 11 11 10 3 5 11 1 3 7 14 15 14 15 15 14
15 15 16 17 16 16 17 17 15 13 11 11 8 10 3 4 1 6 6 7 7 6 10 2 7 9 10 13 15 14 10 8 3 11 4 6 5 5 9 7 14 14 13 12 14
17 17 18 18 18 17 18 19 15 7 8 9 8 9 9 5 9 7 3 6 9 7 6 5 10 15 6 11 14 7 4 9 6 5 6 3 2 5 10 9 12 14 13 15 12
18 18 19 19 19 18 21 16 4 5 7 9 8 8 7 8 7 5 3 5 8 8 8 11 9 11 12 14 9 7 3 12 12 10 7 8 5 4 11 10 9 11 14 12 11
18 19 19 20 20 18 14 4 5 6 12 7 5 4 8 9 8 9 6 8 9 11 14 15 12 14 16 15 5 3 9 11 12 11 11 9 7 6 5 5 11 6 10 12 10
19 20 21 21 21 19 8 5 8 6 4 4 4 4 1 8 7 8 10 10 9 13 14 11 16 16 10 3 6 11 8 11 7 11 8 12 12 9 8 7 12 14 16 18 17
21 21 21 21 22 8 7 6 7 7 7 5 3 4 7 10 2 11 12 10 10 12 10 14 14 14 4 7 12 12 7 2 5 9 6 5 9 14 15 9 10 16 14 9 14
22 22 20 25 6 1 3 2 6 3 6 9 10 7 7 5 6 5 14 7 4 9 9 12 3 3 12 14 12 16 10 3 5 6 4 9 1 13 18 16 14 13 18 6 15
22 21 19 9 10 8 5 6 5 4 5 4 6 5 1 7 6 9 7 6 10 7 7 11 5 12 15 15 10 6 8 9 6 11 11 13 4 5 21 17 19 17 23 13 10
25 22 17 6 6 8 5 7 6 8 2 7 6 7 10 3 5 6 7 8 7 5 10 15 3 11 14 13 12 14 7 11 14 13 12 8 8 7 10 15 17 20 21 19 21
26 20 7 9 1 3 6 7 9 5 3 7 7 8 3 4 8 8 9 11 9 10 13 13 12 12 12 9 13 15 14 12 13 10 4 8 7 6 9 6 18 20 18 20 17
30 12 11 8 7 6 7 9 9 6 1 4 3 3 8 2 6 5 7 11 8 9 7 8 13 18 13 16 12 17 19 10 5 3 6 7 6 6 5 10 20 21 18 14 21
29 5 7 5 8 5 8 11 2 1 3 3 8 9 10 7 7 3 7 9 3 7 13 2 8 9 16 14 19 13 15 11 7 15 10 9 7 13 11 7 9 19 23 18 19
5 6 6 4 7 6 8 11 3 3 4 4 9 1 5 5 5 8 8 6 5 5 9 6 9 6 13 13 17 16 6 5 12 4 5 4 9 9 8 7 5 13 20 17 18
6 6 7 9 6 7 11 5 3 6 4 5 1 4 4 5 8 6 3 7 2 4 8 13 11 3 11 12 14 10 5 13 2 4 10 5 3 13 10 6 7 9 17 17 22
8 6 8 7 8 10 11 2 3 5 7 4 5 7 6 3 7 5 6 5 3 9 11 12 12 8 3 15 19 15 13 16 10 5 4 17 5 9 12 6 6 2 8 18 6
5 1 7 8 11 10 4 7 6 6 8 3 3 3 1 5 4 7 0 8 4 9 10 8 10 9 5 12 13 13 15 8 9 4 11 12 3 9 14 5 9 11 11 16 15
5 5 6 8 13 13 9 11 12 6 4 4 6 5 6 9 5 7 7 6 2 6 5 8 16 13 5 12 8 13 24 21 10 4 2 13 17 14 5 6 7 8 7 4 16
5 7 3 10 13 13 9 10 11 8 9 4 5 8 7 4 4 5 4 7 11 8 9 13 8 8 5 11 8 27 25 5 4 6 15 19 11 10 9 8 6 6 5 2 7
6 6 5 12 9 17 9 15 13 12 8 10 9 4 4 6 2 7 6 10 4 6 18 8 4 15 20 23 27 10 3 11 5 22 10 20 14 13 11 11 8 8 9 11 11
5 9 5 9 14 13 14 16 11 13 9 8 3 5 8 1 6 9 9 11 9 4 11 6 13 9 11 12 22 13 1 8 3 21 19 12 14 15 15 11 5 7 9 10 10
Wind_Direction
358 358 355 350 345 343 342 340 332 323 315 312 312 311 311 312 300 233 243 31 88 202 243 223 223 223 217 221 229 206 247 359 108 134 123 115 105 80 114 132 132 92 144 125 155
1 355 349 345 342 338 337 336 331 325 317 311 308 307 310 315 279 246 74 78 94 228 215 207 207 211 238 216 228 132 257 31 31 154 125 132 103 133 134 125 121 126 116 136 153
0 355 350 343 337 333 332 330 327 322 317 310 304 303 307 305 264 101 27 156 211 217 254 239 232 246 154 253 207 303 79 345 41 12 147 134 130 144 160 125 146 135 141 150 156
359 355 351 346 340 334 329 326 325 321 315 307 301 303 304 269 218 71 102 165 204 230 249 229 233 240 145 267 178 108 69 13 52 27 38 46 129 96 89 172 130 140 149 153 163
356 356 352 345 337 332 327 324 320 314 308 301 301 305 285 217 68 85 147 174 197 219 228 221 230 267 139 184 101 108 125 86 356 23 38 343 63 79 112 113 123 139 154 161 169
350 350 346 343 337 331 323 318 311 304 298 294 297 301 246 238 59 113 161 175 198 214 225 237 302 330 43 177 108 127 152 135 311 56 36 3 37 83 123 127 133 147 161 168 161
344 340 342 339 334 327 322 315 307 297 286 281 288 279 258 66 65 135 165 190 201 240 214 230 297 248 287 144 124 136 140 144 166 114 32 339 342 140 127 143 151 157 164 168 169
340 336 335 334 331 326 319 315 304 289 268 267 275 260 49 130 83 203 159 168 199 215 275 190 259 289 257 199 142 163 136 158 148 151 46 279 175 270 327 274 167 158 163 162 161
337 335 332 331 329 324 314 310 302 267 238 251 245 228 118 137 203 160 234 199 192 208 216 263 249 251 197 183 197 189 211 155 148 123 129 160 101 285 299 279 177 161 167 156 163
337 334 331 330 326 321 311 297 312 225 218 225 265 259 168 185 136 167 159 189 190 196 213 220 225 231 226 235 229 140 55 175 142 167 157 162 147 266 296 260 267 182 171 164 169
337 335 330 327 322 318 308 205 201 198 219 320 71 78 135 107 159 204 182 207 210 204 213 204 218 221 221 246 118 227 158 139 111 152 164 164 178 199 242 277 264 291 217 185 172
339 334 329 323 317 314 278 299 26 354 143 120 95 111 31 189 156 172 207 209 204 215 224 189 225 237 251 88 265 267 186 80 126 169 205 165 177 200 223 207 221 239 265 188 167
337 331 324 320 317 284 281 17 337 328 249 152 115 142 154 220 136 159 211 224 223 230 209 232 208 238 191 200 248 246 257 111 173 162 231 210 167 183 206 206 231 248 253 207 181
332 329 324 321 299 264 225 12 305 307 249 147 177 121 172 261 102 134 221 256 220 237 212 240 188 282 230 238 229 260 183 252 126 230 213 191 269 182 183 191 203 228 242 139 228
329 325 318 313 317 249 41 307 321 242 233 129 113 91 122 266 119 157 219 222 251 217 237 211 167 227 239 229 203 268 293 259 177 251 215 182 247 167 167 198 205 210 225 215 227
328 322 312 215 225 283 294 303 259 237 103 138 158 199 206 172 123 118 191 252 353 265 225 288 212 222 240 232 244 258 235 243 251 244 257 133 238 188 189 223 200 187 210 213 197
322 315 258 313 344 346 293 269 233 272 134 155 176 208 295 111 141 188 194 201 229 207 200 204 207 227 252 236 225 235 240 239 222 208 249 242 207 121 175 149 174 173 200 215 231
325 314 204 267 314 287 262 250 264 33 288 79 237 188 263 9 160 193 196 226 212 289 275 211 192 203 194 239 226 225 240 268 309 297 309 93 239 97 116 148 168 173 195 200 226
320 206 218 183 216 261 264 243 67 19 46 264 166 238 195 174 290 225 228 301 36 208 275 228 215 157 211 218 247 214 231 249 293 273 229 159 49 123 110 96 162 201 174 185 219
285 218 155 148 200 235 253 272 91 358 301 228 284 46 296 130 231 211 192 86 257 252 278 341 267 183 201 212 236 266 331 248 185 251 225 226 174 94 66 38 321 184 163 179 207
251 228 123 162 200 233 249 100 133 154 259 290 339 214 287 322 282 207 125 102 231 250 255 282 283 282 188 215 224 214 153 251 16 81 289 152 45 72 51 22 330 127 158 164 208
284 234 145 182 223 230 262 165 30 190 189 236 282 329 320 357 202 251 52 115 33 287 237 217 281 219 296 312 253 270 273 244 244 225 336 288 108 46 35 28 326 27 181 158 195
264 239 164 218 234 214 199 217 236 204 196 218 244 248 30 330 318 306 341 86 327 299 353 305 245 243 38 303 238 247 201 307 48 106 264 299 109 67 16 53 31 358 145 138 155
274 219 159 211 261 279 192 227 193 214 281 289 322 277 246 242 160 256 223 164 245 305 340 296 270 89 280 254 299 289 274 119 259 41 187 290 128 103 47 54 34 319 14 173 142
245 259 50 197 227 237 267 255 217 175 234 221 185 255 225 275 237 230 295 266 204 149 247 263 309 158 148 214 128 275 268 106 38 266 245 255 105 140 102 83 45 5 51 83 169
302 306 318 257 216 220 203 249 243 226 182 207 251 179 261 270 287 336 341 280 263 269 276 263 277 272 175 216 224 174 56 126 326 289 113 271 100 111 98 88 41 39 45 47 37
13 276 272 268 244 226 230 210 221 257 185 272 260 234 209 38 19 326 307 300 282 313 301 321 300 296 294 30 328 258 172 81 335 337 311 198 141 142 121 105 83 82 63 56 55